Location: Le Petit-Vavre
(46.5081°N, 1.5239°E)
Time: 15:02:34
(UTC+00:00)

SJ 16-02 - Pass Details

Date: 03 March 2021
Orbit: 605 x 617 km, 75.0° (Epoch: 18 April)

Event Time Altitude Azimuth Distance (km) Brightness Sun altitude
Rises 19:34:00 0° 347° (NNW) 2,883 5.1 -19.8°
Reaches altitude 10° 19:36:29 10° 359° (N) 1,976 4.1 -20.2°
Enters shadow 19:39:24 27° 37° (NE) 1,189 2.6 -20.7°
